GPS BIIR-08 1 27663U 03005A 26073.38516103 .00000019 00000+0 00000+0 0 9995 2 27663 54.9049 218.7332 0148685 52.7877 315.0636 2.00565720169413 GPS BIIR-11 1 28190U 04009A 26073.37918436 .00000028 00000+0 00000+0 0 9990 2 28190 54.9080 279.5164 0111434 169.3433 349.7979 2.00557837161042 GPS BIIR-13 1 28474U 04045A 26072.32972420 -.00000071 00000+0 00000+0 0 9991 2 28474 55.1896 328.7595 0170709 313.1823 232.1022 2.00573937156500 GPS BIIR-14M 1 28874U 05038A 26073.40553155 .00000032 00000+0 00000+0 0 9994 2 28874 54.9554 277.0011 0128541 295.4769 267.0042 2.00572369149935 METEOSAT-9 (MSG-2) 1 28912U 05049B 26072.50792468 .00000128 00000+0 00000+0 0 9997 2 28912 9.1445 55.0898 0000184 58.1827 286.5308 1.00267419 6037 GPS BIIR-16M 1 29601U 06052A 26070.69292581 .00000033 00000+0 00000+0 0 9992 2 29601 54.9554 217.8682 0087716 89.5016 271.4739 2.00552224141454 GPS BIIR-17M 1 32260U 07047A 26072.99372292 .00000030 00000+0 00000+0 0 9992 2 32260 54.0235 83.9876 0163687 86.0468 275.8750 2.00560318134904 GPS BIIR-18M 1 32384U 07062A 26072.05935947 .00000029 00000+0 00000+0 0 9993 2 32384 55.1084 278.0153 0033186 160.7725 12.4048 2.00554193133588 GOES 14 1 35491U 09033A 26073.60728262 .00000110 00000+0 00000+0 0 9998 2 35491 1.4440 84.2624 0001679 273.9830 228.1978 1.00103446 5649 GOES 15 1 36411U 10008A 26073.62403521 .00000021 00000+0 00000+0 0 9996 2 36411 1.0320 84.9083 0002544 17.1366 358.2423 1.00270283 58692 GSAT0101 (GALILEO-PFM) 1 37846U 11060A 26053.46432651 -.00000082 00000+0 00000+0 0 9992 2 37846 57.0318 344.8758 0003975 357.0591 2.9533 1.70475478 89166 GSAT0102 (GALILEO-FM2) 1 37847U 11060B 26060.06318653 -.00000106 00000+0 00000+0 0 9999 2 37847 57.0301 344.6971 0005422 341.2092 154.1953 1.70475778 89286 LUCH 5A 1 37951U 11074B 26073.31631042 -.00000045 00000+0 00000+0 0 9994 2 37951 8.5116 75.1968 0003401 262.5594 115.1508 1.00268954 52109 METEOSAT-10 (MSG-3) 1 38552U 12035B 26073.56854878 -.00000005 00000+0 00000+0 0 9997 2 38552 4.4463 61.4124 0002353 287.8622 27.7302 1.00269338 49907 SARSAT 13 (METOP-B) 1 38771U 12049A 26073.58354055 .00000126 00000+0 77649-4 0 9990 2 38771 98.6632 126.9191 0001312 239.8727 120.2320 14.21446444699824 GPS BIIF-3 1 38833U 12053A 26073.08978891 -.00000002 00000+0 00000+0 0 9995 2 38833 53.5669 147.4965 0177046 64.8456 297.0314 2.00565997 97538 GSAT0103 (GALILEO-FM3) 1 38857U 12055A 26073.44869499 .00000040 00000+0 00000+0 0 9997 2 38857 55.7469 104.1441 0005619 286.5139 73.5020 1.70473501 83397 GPS BIIF-4 1 39166U 13023A 26072.95476941 .00000035 00000+0 00000+0 0 9992 2 39166 54.5793 272.8513 0141786 50.0653 311.2026 2.00564183 93976 INSAT-3D 1 39216U 13038B 26073.59411556 -.00000339 00000+0 00000+0 0 9994 2 39216 1.6801 83.7801 0001548 245.2557 186.5583 1.00276418 46133 GPS BIIF-5 1 39533U 14008A 26072.95373021 -.00000008 00000+0 00000+0 0 9990 2 39533 53.6383 153.2055 0082642 228.6391 130.6893 2.00553744 87776 LUCH 5V 1 39727U 14023A 26073.68279591 -.00000266 00000+0 00000+0 0 9996 2 39727 4.8991 70.6656 0003135 297.7893 144.3232 1.00268817 43412 GPS BIIF-6 1 39741U 14026A 26073.23128864 -.00000074 00000+0 00000+0 0 9999 2 39741 56.5417 335.2169 0039739 325.0603 34.7215 2.00568021 86632 GPS BIIF-7 1 40105U 14045A 26073.31949591 .00000042 00000+0 00000+0 0 9997 2 40105 55.2885 92.2427 0031424 120.3235 240.0488 2.00552225 84170 GSAT0201 (GALILEO 5) 1 40128U 14050A 26070.32154952 .00000005 00000+0 00000+0 0 9994 2 40128 48.9815 277.4406 1658807 175.5932 186.0859 1.85520170 76503 GSAT0202 (GALILEO 6) 1 40129U 14050B 26070.57744300 .00000009 00000+0 00000+0 0 9998 2 40129 48.9971 276.5149 1659654 176.3418 185.0558 1.85520847 78676 GPS BIIF-8 1 40294U 14068A 26073.19684733 -.00000046 00000+0 00000+0 0 9996 2 40294 56.9263 34.6146 0063249 68.1095 292.5564 2.00570456 83305 GLONASS-K 2 1 40315U 14075A 26073.04100405 .00000000 00000+0 00000+0 0 9990 2 40315 63.6166 193.6632 0020968 206.5488 153.3288 2.13101375 87829 GPS BIIF-9 1 40534U 15013A 26073.32863954 .00000004 00000+0 00000+0 0 9996 2 40534 53.1841 208.0995 0108772 39.8558 320.9019 2.00556995 79928 GSAT0203 (GALILEO 7) 1 40544U 15017A 26072.59966583 -.00000084 00000+0 00000+0 0 9990 2 40544 56.8181 344.2043 0004663 298.7140 61.2673 1.70475763 67578 GSAT0204 (GALILEO 8) 1 40545U 15017B 26068.16259097 -.00000099 00000+0 00000+0 0 9990 2 40545 56.8258 344.3432 0004133 288.3156 71.6649 1.70475628 30546 GPS BIIF-10 1 40730U 15033A 26072.99041878 .00000035 00000+0 00000+0 0 9995 2 40730 54.0576 271.0094 0114687 29.1823 331.4807 2.00561166 78084 METEOSAT-11 (MSG-4) 1 40732U 15034A 26073.57036880 .00000062 00000+0 00000+0 0 9990 2 40732 2.9637 71.6194 0001839 274.6277 40.5020 1.00269313 6269 GSAT0206 (GALILEO 10) 1 40890U 15045B 26071.08432484 .00000037 00000+0 00000+0 0 9993 2 40890 54.9793 224.2827 0003542 50.5001 309.4904 1.70473824 65389 GPS BIIF-11 1 41019U 15062A 26072.55052907 -.00000047 00000+0 00000+0 0 9999 2 41019 56.8991 34.4957 0111407 231.5460 127.4471 2.00567146 75911 ELEKTRO-L 2 1 41105U 15074A 26073.35167058 -.00000115 00000+0 00000+0 0 9997 2 41105 6.4549 71.6840 0002821 249.5382 322.8309 1.00273517 37556 GSAT0209 (GALILEO 12) 1 41174U 15079A 26071.83901833 .00000029 00000+0 00000+0 0 9999 2 41174 55.7650 103.9035 0004999 323.1147 36.9219 1.70474571 63139 GSAT0208 (GALILEO 11) 1 41175U 15079B 26071.47266059 .00000026 00000+0 00000+0 0 9991 2 41175 55.7631 103.9106 0004462 323.9096 36.1299 1.70474449 63543 GPS BIIF-12 1 41328U 16007A 26072.13767287 .00000030 00000+0 00000+0 0 9991 2 41328 55.4616 93.2660 0095647 246.2279 112.8230 2.00556390 73913 GSAT0211 (GALILEO 14) 1 41549U 16030A 26071.01008659 .00000037 00000+0 00000+0 0 9996 2 41549 55.1288 224.3646 0003470 23.7611 336.2141 1.70473955 61014 GSAT0210 (GALILEO 13) 1 41550U 16030B 26070.68077775 .00000037 00000+0 00000+0 0 9995 2 41550 55.1262 224.3718 0001380 200.1148 159.8391 1.70474000 61009 INSAT-3DR 1 41752U 16054A 26073.66585441 -.00000078 00000+0 00000+0 0 9996 2 41752 0.0725 91.6208 0012709 190.6134 203.7397 1.00271985 34870 GSAT0207 (GALILEO 15) 1 41859U 16069A 26072.71887421 .00000034 00000+0 00000+0 0 9999 2 41859 55.4358 103.7267 0005361 309.9075 50.1195 1.70474457 57779 GSAT0212 (GALILEO 16) 1 41860U 16069B 26071.98582704 .00000029 00000+0 00000+0 0 9999 2 41860 55.4332 103.7422 0003884 334.9903 25.0622 1.70474723 58012 GSAT0213 (GALILEO 17) 1 41861U 16069C 26070.59350272 .00000020 00000+0 00000+0 0 9990 2 41861 55.4354 103.7885 0005437 293.5263 66.4835 1.70475014 57855 GSAT0214 (GALILEO 18) 1 41862U 16069D 26071.91273604 .00000028 00000+0 00000+0 0 9999 2 41862 55.4337 103.7448 0004476 297.9628 62.0628 1.70474834 58006 GOES 16 1 41866U 16071A 26073.54774869 -.00000092 00000+0 00000+0 0 9998 2 41866 0.1235 86.9349 0002210 231.5878 306.1335 1.00273550 34153 GSAT-17 1 42815U 17040B 26073.66757375 .00000000 00000+0 00000+0 0 9994 2 42815 0.0234 135.4248 0004492 158.8133 211.8804 1.00267935 31849 GSAT0215 (GALILEO 19) 1 43055U 17079A 26071.81619082 .00000037 00000+0 00000+0 0 9990 2 43055 55.1052 224.1555 0000503 355.2258 4.7321 1.70474604 51342 GSAT0216 (GALILEO 20) 1 43056U 17079B 26073.28055991 .00000034 00000+0 00000+0 0 9994 2 43056 55.1052 224.1154 0001736 311.7748 48.1644 1.70474699 51386 GSAT0217 (GALILEO 21) 1 43057U 17079C 26071.74158320 .00000037 00000+0 00000+0 0 9997 2 43057 55.1048 224.1555 0001948 350.8522 9.1027 1.70474639 51348 GSAT0218 (GALILEO 22) 1 43058U 17079D 26072.54820792 .00000036 00000+0 00000+0 0 9995 2 43058 55.1035 224.1311 0002024 298.9535 60.9828 1.70474604 51387 GOES 17 1 43226U 18022A 26073.55078204 -.00000183 00000+0 00000+0 0 9990 2 43226 0.6927 87.3200 0001625 234.4927 319.1205 1.00272505 29473 GSAT0221 (GALILEO 25) 1 43564U 18060A 26065.99917537 -.00000103 00000+0 00000+0 0 9999 2 43564 57.2026 344.5430 0005694 308.1098 51.8621 1.70475614 47427 GSAT0222 (GALILEO 26) 1 43565U 18060B 26065.04549094 -.00000105 00000+0 00000+0 0 9997 2 43565 57.2060 344.5721 0004084 287.9587 72.0183 1.70475258 47453 GSAT0219 (GALILEO 23) 1 43566U 18060C 26067.02636862 -.00000101 00000+0 00000+0 0 9994 2 43566 57.2050 344.5202 0004318 344.0327 15.9782 1.70474822 47462 GSAT0220 (GALILEO 24) 1 43567U 18060D 26058.44840234 -.00000102 00000+0 00000+0 0 9992 2 43567 57.2075 344.7516 0005301 308.5821 51.3768 1.70475159 47302 BEIDOU-3 M13 1 43622U 18072A 26071.88388212 .00000009 00000+0 00000+0 0 9998 2 43622 56.5410 65.8356 0009034 308.7444 51.1959 1.86231253 50869 BEIDOU-3 M14 1 43623U 18072B 26071.74933770 .00000008 00000+0 00000+0 0 9998 2 43623 56.5428 65.8343 0006575 329.8398 30.1432 1.86231274 50859 GPS BIII-1 1 43873U 18109A 26072.52464372 .00000035 00000+0 00000+0 0 9990 2 43873 55.6205 95.9595 0038059 198.5669 333.4222 2.00557317 53154 METEOR-M2 2 1 44387U 19038A 26073.62215517 -.00000009 00000+0 15968-4 0 9996 2 44387 98.9093 59.5420 0000633 350.2531 9.8635 14.24335836347837 GPS BIII-2 1 44506U 19056A 26073.65497499 -.00000072 00000+0 00000+0 0 9999 2 44506 55.6800 334.9029 0058240 197.9897 330.8097 2.00568616 48178 BEIDOU-3 M24 1 44542U 19061A 26073.20132124 -.00000013 00000+0 00000+0 0 9992 2 44542 54.3984 185.9306 0008488 19.2225 340.7928 1.86229100 44027 BEIDOU-3 M23 1 44543U 19061B 26073.45188475 -.00000012 00000+0 00000+0 0 9999 2 44543 54.3970 185.8909 0004923 10.3958 69.7972 1.86227431 44039 BEIDOU-3 M22 1 44793U 19078A 26073.04051358 -.00000019 00000+0 00000+0 0 9995 2 44793 54.0216 303.1765 0007465 38.1970 321.9120 1.86232320 42878 BEIDOU-3 M21 1 44794U 19078B 26071.03242650 -.00000032 00000+0 00000+0 0 9995 2 44794 53.9966 303.2101 0005425 33.1471 326.9381 1.86227925 42845 ELEKTRO-L 3 1 44903U 19095A 26072.58515229 -.00000096 00000+0 00000+0 0 9992 2 44903 0.0380 340.0026 0001508 9.4736 108.2976 1.00270722 22751 GPS BIII-3 1 45854U 20041A 26073.50614851 -.00000050 00000+0 00000+0 0 9995 2 45854 56.6120 32.6177 0061507 205.1523 158.0310 2.00560602 42141 COSMOS 2547 1 46805U 20075A 26071.27634948 .00000011 00000+0 00000+0 0 9996 2 46805 64.5993 195.7069 0007007 230.8854 129.0383 2.13100396 41840 GPS BIII-4 1 46826U 20078A 26072.77672522 .00000015 00000+0 00000+0 0 9992 2 46826 54.0000 214.6461 0068727 204.4855 325.5215 2.00565485 39593 GSAT0223 (GALILEO 27) 1 49809U 21116A 26073.28386141 -.00000081 00000+0 00000+0 0 9990 2 49809 57.1915 344.2418 0001958 285.8605 269.7171 1.70475737 26566 GSAT0224 (GALILEO 28) 1 49810U 21116B 26064.29072237 -.00000105 00000+0 00000+0 0 9998 2 49810 57.1948 344.4822 0001942 295.2728 253.6293 1.70475760 26438 GOES 18 1 51850U 22021A 26073.54133532 .00000096 00000+0 00000+0 0 9993 2 51850 0.0348 37.3150 0000807 24.6626 168.0462 1.00272820 5640 COSMOS 2557 (706K) 1 52984U 22075A 26072.84916696 -.00000029 00000+0 00000+0 0 9990 2 52984 64.3539 317.8460 0011386 283.8913 76.0424 2.13102035 28686 METEOSAT-12 (MTG-I1) 1 54743U 22170C 26073.35453059 -.00000008 00000+0 00000+0 0 9994 2 54743 0.7114 22.9393 0001749 291.7318 344.5795 1.00271337 12024 METEOR-M2 3 1 57166U 23091A 26073.59545550 .00000002 00000+0 19679-4 0 9993 2 57166 98.6204 130.4607 0005098 88.0948 272.0815 14.24038155141055 COSMOS 2569 (703K) 1 57517U 23114A 26072.99419750 .00000055 00000+0 00000+0 0 9995 2 57517 65.2480 75.8292 0012947 292.2655 67.6350 2.13103986 20236 METEOR-M2 4 1 59051U 24039A 26073.64345834 .00000026 00000+0 31231-4 0 9994 2 59051 98.6911 34.1817 0008202 84.0351 276.1761 14.22418110105823 GSAT0225 (GALILEO 29) 1 59598U 24079A 26073.38599072 .00000038 00000+0 00000+0 0 9998 2 59598 55.0556 103.7282 0002816 259.7008 104.1588 1.70475013 11709 GSAT0227 (GALILEO 30) 1 59600U 24079C 26072.39006147 .00000031 00000+0 00000+0 0 9991 2 59600 55.0508 103.7545 0000363 35.4320 324.6432 1.70474883 11737 GSAT0232 (GALILEO 32) 1 61182U 24167A 26048.66150565 .00000069 00000+0 00000+0 0 9995 2 61182 55.2225 224.5881 0003600 296.6314 116.1306 1.70443939 8265 GSAT0226 (GALILEO 31) 1 61183U 24167B 26072.77594144 .00000035 00000+0 00000+0 0 9993 2 61183 55.2155 223.9355 0001584 137.4612 46.3182 1.70474359 9222 GSAT0233 (GALILEO 33) 1 67160U 25302A 26044.50000000 -.00000008 00000+0 00000+0 0 9990 2 67160 54.3935 105.2952 0003011 207.0582 359.4109 1.70474578 20 GSAT0234 (GALILEO 34) 1 67162U 25302C 26072.32105750 .00000028 00000+0 00000+0 0 9992 2 67162 54.2701 104.8613 0002786 225.0665 135.9201 1.70475046 1540